TimeCDT,TemperatureF,Dew PointF,Humidity,Sea Level PressureIn,VisibilityMPH,Wind Direction,Wind SpeedMPH,Gust SpeedMPH,PrecipitationIn,Events,Conditions,WindDirDegrees,DateUTC
12:53 AM,33.1,30.0,89,30.24,10.0,NNE,11.5,-,N/A,,Overcast,30,2013-05-04 05:53:00
1:53 AM,33.1,30.0,89,30.24,10.0,NNE,5.8,-,0.00,,Overcast,30,2013-05-04 06:53:00
2:06 AM,33.8,30.2,87,30.17,8.0,North,6.9,-,N/A,,Overcast,10,2013-05-04 07:06:00
2:18 AM,32.0,30.2,93,30.17,10.0,NNE,6.9,-,N/A,,Overcast,20,2013-05-04 07:18:00
2:31 AM,32.0,30.2,93,30.17,6.0,NNE,6.9,-,N/A,,Overcast,20,2013-05-04 07:31:00
2:53 AM,32.0,30.0,92,30.22,9.0,NNE,8.1,-,0.00,,Overcast,20,2013-05-04 07:53:00
3:53 AM,32.0,30.2,93,30.15,3.0,NNE,6.9,-,N/A,,Overcast,20,2013-05-04 08:53:00
3:55 AM,32.0,30.2,93,30.15,2.5,NNE,6.9,-,0.00,,Overcast,20,2013-05-04 08:55:00
4:02 AM,32.0,30.2,93,30.15,2.5,NNE,9.2,-,0.01,,Overcast,30,2013-05-04 09:02:00
4:28 AM,32.0,30.2,93,30.16,4.0,NNE,5.8,-,0.03,,Overcast,30,2013-05-04 09:28:00
4:53 AM,32.0,30.0,92,30.22,4.0,NNE,5.8,-,0.06,,Overcast,30,2013-05-04 09:53:00
5:20 AM,32.0,30.2,93,30.16,3.0,NNE,5.8,-,0.01,,Overcast,30,2013-05-04 10:20:00
5:53 AM,32.0,30.9,96,30.22,3.0,NNE,8.1,-,0.05,,Overcast,30,2013-05-04 10:53:00
6:15 AM,32.0,30.2,93,30.15,5.0,NNE,9.2,-,0.02,,Overcast,20,2013-05-04 11:15:00
6:30 AM,32.0,30.2,93,30.15,6.0,North,10.4,-,0.03,,Overcast,10,2013-05-04 11:30:00
6:51 AM,32.0,30.2,93,30.15,10.0,NNE,8.1,16.1,0.04,,Overcast,20,2013-05-04 11:51:00
6:53 AM,32.0,30.0,92,30.21,10.0,NNE,6.9,16.1,0.04,,Overcast,20,2013-05-04 11:53:00
7:53 AM,33.1,30.9,92,30.22,10.0,NNE,6.9,-,0.00,,Overcast,30,2013-05-04 12:53:00
8:35 AM,33.8,32.0,93,30.15,6.0,NNE,5.8,-,0.01,Rain,Light Rain,20,2013-05-04 13:35:00
8:53 AM,34.0,32.0,92,30.23,7.0,NNE,8.1,-,0.02,Rain,Light Rain,30,2013-05-04 13:53:00
9:53 AM,35.1,32.0,89,30.23,10.0,NNE,8.1,-,0.02,,Overcast,20,2013-05-04 14:53:00
10:53 AM,36.0,33.1,89,30.24,10.0,NNE,10.4,-,N/A,,Overcast,20,2013-05-04 15:53:00
11:53 AM,37.0,34.0,89,30.25,10.0,NNE,10.4,17.3,N/A,,Overcast,30,2013-05-04 16:53:00
12:53 PM,39.0,36.0,89,30.22,10.0,North,10.4,18.4,N/A,,Overcast,10,2013-05-04 17:53:00
1:53 PM,39.0,36.0,89,30.23,10.0,NNE,9.2,-,N/A,,Overcast,30,2013-05-04 18:53:00
2:53 PM,39.9,37.0,89,30.22,10.0,North,8.1,-,N/A,,Overcast,10,2013-05-04 19:53:00
3:53 PM,41.0,37.0,86,30.23,10.0,NNE,6.9,-,N/A,,Overcast,20,2013-05-04 20:53:00
4:53 PM,41.0,37.0,86,30.22,10.0,North,8.1,-,N/A,,Overcast,10,2013-05-04 21:53:00
5:53 PM,41.0,37.0,86,30.23,10.0,North,8.1,-,N/A,,Overcast,10,2013-05-04 22:53:00
6:53 PM,41.0,37.0,86,30.23,10.0,North,9.2,-,N/A,,Overcast,10,2013-05-04 23:53:00
7:53 PM,41.0,37.9,89,30.24,10.0,NNE,8.1,-,N/A,,Overcast,20,2013-05-05 00:53:00
8:53 PM,41.0,37.9,89,30.25,10.0,North,5.8,-,N/A,,Overcast,10,2013-05-05 01:53:00
9:53 PM,41.0,36.0,82,30.25,10.0,NNE,6.9,-,N/A,,Overcast,30,2013-05-05 02:53:00
10:53 PM,39.9,36.0,86,30.25,10.0,NE,5.8,-,N/A,,Overcast,50,2013-05-05 03:53:00
11:26 PM,39.2,35.6,87,30.19,10.0,ENE,6.9,-,N/A,,Overcast,60,2013-05-05 04:26:00
11:53 PM,39.9,35.1,83,30.24,10.0,NE,8.1,-,N/A,,Overcast,50,2013-05-05 04:53:00